PBD6544 USSS-UUEE

Flight info

Callsign PBD6544
Flight time N/A
Altitude 36000
Route LUNAG6K LUNAG M864 AGNOK T796 ORTIM L158 DIMGI
Aircraft B738/M-SDE2E3FGHIRWXY/LB1

Departure

Time N/A
Airport Koltsovo Airport (USSS)

Arrival

Time 2026-05-06 17:25
Airport Sheremetyevo International Airport (UUEE)
Time Latitude Longitude Altitude Speed Heading
2026-05-06 16:20 55.69175 47.11243 35834 ft 436 kts 286°
2026-05-06 16:21 55.70842 47.00910 35835 ft 436 kts 286°
2026-05-06 16:21 55.72505 46.90549 35835 ft 436 kts 286°
2026-05-06 16:22 55.74160 46.80175 35834 ft 437 kts 285°
2026-05-06 16:22 55.75806 46.69795 35836 ft 437 kts 285°
2026-05-06 16:23 55.77434 46.59470 35833 ft 437 kts 285°
2026-05-06 16:23 55.79056 46.49066 35829 ft 437 kts 284°
2026-05-06 16:24 55.79781 46.38384 35842 ft 436 kts 273°
2026-05-06 16:24 55.80080 46.27632 35837 ft 435 kts 273°
2026-05-06 16:25 55.80390 46.16899 35830 ft 434 kts 273°
2026-05-06 16:25 55.80714 46.06197 35830 ft 433 kts 273°
2026-05-06 16:26 55.81037 45.95510 35832 ft 433 kts 273°
2026-05-06 16:26 55.81353 45.84833 35835 ft 432 kts 273°
2026-05-06 16:27 55.81657 45.74248 35831 ft 431 kts 273°
2026-05-06 16:27 55.81954 45.63590 35833 ft 432 kts 273°
2026-05-06 16:28 55.82241 45.52914 35832 ft 432 kts 273°
2026-05-06 16:28 55.82517 45.42239 35834 ft 432 kts 272°
2026-05-06 16:29 55.82785 45.31555 35834 ft 433 kts 272°
2026-05-06 16:29 55.83045 45.20862 35835 ft 433 kts 272°
2026-05-06 16:30 55.83254 45.11978 35836 ft 433 kts 272°
2026-05-06 16:30 55.83537 44.99473 35834 ft 433 kts 272°
2026-05-06 16:31 55.83772 44.88759 35834 ft 433 kts 271°
2026-05-06 16:31 55.83998 44.78144 35832 ft 432 kts 271°
2026-05-06 16:32 55.84216 44.67467 35836 ft 431 kts 271°
2026-05-06 16:32 55.84423 44.56826 35832 ft 430 kts 271°
2026-05-06 16:33 55.84620 44.46228 35835 ft 428 kts 270°
2026-05-06 16:34 55.84901 44.30384 35835 ft 426 kts 270°
2026-05-06 16:34 55.85074 44.19872 35835 ft 425 kts 270°
2026-05-06 16:35 55.85241 44.09383 35830 ft 423 kts 270°
2026-05-06 16:35 55.85398 43.98916 35831 ft 422 kts 270°
2026-05-06 16:36 55.85544 43.88474 35834 ft 422 kts 270°
2026-05-06 16:36 55.85680 43.78114 35831 ft 422 kts 270°
2026-05-06 16:37 55.85809 43.67682 35832 ft 422 kts 269°
2026-05-06 16:37 55.85930 43.57248 35835 ft 422 kts 269°
2026-05-06 16:38 55.86044 43.46783 35833 ft 423 kts 270°
2026-05-06 16:38 55.86155 43.36293 35833 ft 425 kts 270°
2026-05-06 16:39 55.86263 43.25734 35835 ft 428 kts 270°
2026-05-06 16:39 55.86359 43.15251 35835 ft 430 kts 270°
2026-05-06 16:40 55.86448 43.04448 35834 ft 432 kts 270°
2026-05-06 16:40 55.86529 42.93713 35836 ft 434 kts 270°
2026-05-06 16:41 55.86598 42.82933 35833 ft 436 kts 269°
2026-05-06 16:41 55.86660 42.72117 35854 ft 437 kts 269°
2026-05-06 16:42 55.86714 42.61268 35858 ft 438 kts 269°
2026-05-06 16:42 55.86757 42.50466 35864 ft 439 kts 269°
2026-05-06 16:43 55.86790 42.39587 35861 ft 440 kts 269°
2026-05-06 16:43 55.86814 42.28702 35867 ft 439 kts 269°
2026-05-06 16:44 55.86828 42.17823 35875 ft 439 kts 269°
2026-05-06 16:44 55.86832 42.06952 35859 ft 439 kts 269°
2026-05-06 16:45 55.86825 41.96077 35872 ft 439 kts 269°
2026-05-06 16:45 55.86816 41.85216 35873 ft 438 kts 269°
2026-05-06 16:46 55.86757 41.74377 35873 ft 437 kts 266°
2026-05-06 16:46 55.86432 41.63576 35877 ft 437 kts 265°
2026-05-06 16:47 55.86054 41.52858 35873 ft 436 kts 265°
2026-05-06 16:47 55.85694 41.42087 35880 ft 436 kts 266°
2026-05-06 16:48 55.85345 41.31337 35883 ft 435 kts 266°
2026-05-06 16:48 55.84990 41.20594 35880 ft 435 kts 266°
2026-05-06 16:49 55.84624 41.09850 35871 ft 435 kts 266°
2026-05-06 16:49 55.84250 40.99119 35885 ft 434 kts 266°
2026-05-06 16:49 55.84060 40.93745 35755 ft 436 kts 266°
2026-05-06 16:50 55.83866 40.88367 35485 ft 435 kts 266°
2026-05-06 16:50 55.83671 40.83017 35239 ft 431 kts 266°
2026-05-06 16:50 55.83476 40.77701 35002 ft 430 kts 266°
2026-05-06 16:50 55.83346 40.74184 34831 ft 429 kts 266°
2026-05-06 16:51 55.83080 40.67101 34504 ft 428 kts 266°
2026-05-06 16:51 55.82878 40.61816 34257 ft 428 kts 265°
2026-05-06 16:51 55.82673 40.56620 33793 ft 426 kts 265°
2026-05-06 16:51 55.82456 40.51289 33135 ft 426 kts 265°
2026-05-06 16:52 55.82242 40.46100 32407 ft 427 kts 266°
2026-05-06 16:52 55.82022 40.40821 31655 ft 428 kts 266°
2026-05-06 16:52 55.81801 40.35539 30899 ft 430 kts 267°
2026-05-06 16:52 55.81577 40.30230 30100 ft 431 kts 267°
2026-05-06 16:53 55.81350 40.24891 29276 ft 433 kts 268°
2026-05-06 16:53 55.81120 40.19532 28395 ft 436 kts 267°
2026-05-06 16:53 55.80887 40.14154 27469 ft 438 kts 267°
2026-05-06 16:53 55.80650 40.08760 26817 ft 434 kts 267°
2026-05-06 16:54 55.80416 40.03511 26659 ft 418 kts 266°
2026-05-06 16:54 55.80188 39.98434 26458 ft 405 kts 266°
2026-05-06 16:54 55.79967 39.93534 26284 ft 392 kts 266°
2026-05-06 16:54 55.79753 39.88776 26116 ft 380 kts 266°
2026-05-06 16:55 55.79541 39.84165 25957 ft 369 kts 266°
2026-05-06 16:55 55.79329 39.79692 25784 ft 359 kts 265°
2026-05-06 16:55 55.79063 39.75319 25573 ft 352 kts 264°
2026-05-06 16:55 55.78771 39.70978 25387 ft 358 kts 264°
2026-05-06 16:56 55.78468 39.66517 25177 ft 366 kts 264°
2026-05-06 16:56 55.78163 39.62014 24954 ft 367 kts 264°
2026-05-06 16:56 55.77863 39.57537 24726 ft 363 kts 264°
2026-05-06 16:56 55.77571 39.53148 24509 ft 360 kts 264°
2026-05-06 16:57 55.77277 39.48749 24289 ft 358 kts 264°
2026-05-06 16:57 55.76983 39.44364 24082 ft 356 kts 264°
2026-05-06 16:57 55.76689 39.40005 23881 ft 355 kts 264°
2026-05-06 16:57 55.76390 39.35677 23792 ft 354 kts 263°
2026-05-06 16:58 55.76084 39.31313 23719 ft 358 kts 263°
2026-05-06 16:58 55.75773 39.26903 23608 ft 361 kts 263°
2026-05-06 16:58 55.75461 39.22489 23507 ft 360 kts 263°
2026-05-06 16:58 55.75149 39.18094 23413 ft 358 kts 263°
2026-05-06 16:59 55.74836 39.13713 23317 ft 358 kts 263°
2026-05-06 16:59 55.74522 39.09332 23223 ft 357 kts 263°
2026-05-06 16:59 55.74209 39.04965 23135 ft 357 kts 263°
2026-05-06 16:59 55.73893 39.00591 23038 ft 357 kts 263°
2026-05-06 17:00 55.73575 38.96228 22946 ft 357 kts 263°
2026-05-06 17:00 55.73339 38.91838 22734 ft 360 kts 270°
2026-05-06 17:00 55.73511 38.87389 22373 ft 360 kts 276°
2026-05-06 17:00 55.73782 38.82995 22007 ft 357 kts 276°
2026-05-06 17:01 55.74047 38.78642 21649 ft 354 kts 276°
2026-05-06 17:01 55.74291 38.74304 21294 ft 352 kts 275°
2026-05-06 17:01 55.74514 38.70001 20933 ft 349 kts 275°
2026-05-06 17:01 55.74723 38.65737 20580 ft 345 kts 275°
2026-05-06 17:02 55.74925 38.61523 20227 ft 340 kts 274°
2026-05-06 17:02 55.75309 38.57413 19925 ft 338 kts 288°
2026-05-06 17:02 55.76375 38.53611 19902 ft 349 kts 301°
2026-05-06 17:02 55.77779 38.50101 19896 ft 347 kts 304°
2026-05-06 17:03 55.79183 38.46720 19886 ft 341 kts 303°
2026-05-06 17:03 55.80552 38.43363 19878 ft 330 kts 303°
2026-05-06 17:03 55.81863 38.40086 19867 ft 320 kts 302°
2026-05-06 17:03 55.83135 38.36893 19797 ft 316 kts 303°
2026-05-06 17:04 55.84467 38.33755 19462 ft 319 kts 305°
2026-05-06 17:04 55.85828 38.30654 19162 ft 318 kts 305°
2026-05-06 17:04 55.87190 38.27559 18863 ft 317 kts 305°
2026-05-06 17:04 55.88547 38.24464 18547 ft 316 kts 304°
2026-05-06 17:05 55.89888 38.21389 18247 ft 313 kts 304°
2026-05-06 17:05 55.91212 38.18338 17951 ft 309 kts 304°
2026-05-06 17:05 55.92081 38.16332 17756 ft 307 kts 304°
2026-05-06 17:05 55.93379 38.13330 17462 ft 304 kts 304°
2026-05-06 17:06 55.94662 38.10352 17175 ft 301 kts 304°
2026-05-06 17:06 55.95933 38.07400 16893 ft 299 kts 304°
2026-05-06 17:06 55.97194 38.04472 16599 ft 297 kts 304°
2026-05-06 17:06 55.98444 38.01560 16323 ft 294 kts 304°
2026-05-06 17:07 55.99685 37.98664 16045 ft 292 kts 303°
2026-05-06 17:07 56.00613 37.95513 15799 ft 284 kts 284°
2026-05-06 17:07 56.01021 37.92096 15643 ft 281 kts 278°
2026-05-06 17:07 56.01365 37.88638 15469 ft 285 kts 278°
2026-05-06 17:08 56.01709 37.85215 15294 ft 289 kts 279°
2026-05-06 17:08 56.02072 37.81722 15104 ft 289 kts 281°
2026-05-06 17:08 56.02849 37.78414 14895 ft 292 kts 302°
2026-05-06 17:08 56.04266 37.75780 14657 ft 299 kts 321°
2026-05-06 17:09 56.06114 37.73985 14415 ft 304 kts 330°
2026-05-06 17:09 56.08049 37.72417 14136 ft 305 kts 331°
2026-05-06 17:09 56.09989 37.70855 13869 ft 304 kts 330°
2026-05-06 17:09 56.11903 37.69305 13598 ft 301 kts 333°
2026-05-06 17:10 56.13968 37.68552 13308 ft 308 kts 355°
2026-05-06 17:10 56.16108 37.68823 13067 ft 308 kts 360°
2026-05-06 17:10 56.18231 37.69192 12791 ft 305 kts 360°
2026-05-06 17:10 56.20340 37.69552 12520 ft 303 kts 359°
2026-05-06 17:11 56.22433 37.69890 12261 ft 301 kts 359°
2026-05-06 17:11 56.24518 37.70214 11998 ft 300 kts 359°
2026-05-06 17:11 56.26556 37.70528 11747 ft 297 kts 359°
2026-05-06 17:11 56.28598 37.70740 11479 ft 289 kts 350°
2026-05-06 17:12 56.30439 37.69700 11231 ft 272 kts 323°
2026-05-06 17:12 56.31871 37.67613 11019 ft 261 kts 308°
2026-05-06 17:12 56.33026 37.65123 10795 ft 257 kts 305°
2026-05-06 17:12 56.34137 37.62654 10625 ft 250 kts 305°
2026-05-06 17:13 56.35233 37.60238 10415 ft 248 kts 305°
2026-05-06 17:13 56.36321 37.57861 10208 ft 244 kts 306°
2026-05-06 17:13 56.37394 37.55514 10010 ft 241 kts 305°
2026-05-06 17:13 56.38356 37.53099 9870 ft 233 kts 300°
2026-05-06 17:14 56.39156 37.50593 9684 ft 228 kts 285°
2026-05-06 17:14 56.39138 37.47813 9499 ft 225 kts 253°
2026-05-06 17:14 56.38413 37.45300 9284 ft 230 kts 232°
2026-05-06 17:14 56.37057 37.43574 8720 ft 252 kts 205°
2026-05-06 17:15 56.35281 37.43113 8301 ft 268 kts 180°
2026-05-06 17:15 56.33456 37.44042 7953 ft 279 kts 159°
2026-05-06 17:15 56.31739 37.45759 7574 ft 286 kts 153°
2026-05-06 17:15 56.30054 37.47630 7188 ft 283 kts 152°
2026-05-06 17:16 56.28392 37.49485 6812 ft 279 kts 152°
2026-05-06 17:16 56.26745 37.51281 6454 ft 274 kts 153°
2026-05-06 17:16 56.25123 37.53023 6102 ft 269 kts 153°
2026-05-06 17:16 56.23523 37.54725 5761 ft 265 kts 153°
2026-05-06 17:17 56.21965 37.56374 5411 ft 261 kts 153°
2026-05-06 17:17 56.20416 37.58010 5105 ft 257 kts 152°
2026-05-06 17:17 56.18992 37.59878 4916 ft 250 kts 136°
2026-05-06 17:17 56.17814 37.62141 4830 ft 249 kts 135°
2026-05-06 17:18 56.16615 37.64410 4700 ft 253 kts 135°
2026-05-06 17:18 56.15385 37.66700 4580 ft 255 kts 135°
2026-05-06 17:18 56.14149 37.68979 4451 ft 254 kts 135°
2026-05-06 17:18 56.12926 37.71227 4316 ft 249 kts 135°
2026-05-06 17:19 56.11731 37.73420 4228 ft 240 kts 135°
2026-05-06 17:19 56.10585 37.75510 4096 ft 229 kts 137°
2026-05-06 17:19 56.09240 37.76865 3707 ft 225 kts 176°
2026-05-06 17:19 56.07799 37.76287 3485 ft 209 kts 215°
2026-05-06 17:20 56.06643 37.74803 3319 ft 202 kts 227°
2026-05-06 17:20 56.05649 37.73062 3179 ft 200 kts 228°
2026-05-06 17:20 56.04667 37.71352 3050 ft 194 kts 228°
2026-05-06 17:20 56.03702 37.69690 2929 ft 191 kts 228°
2026-05-06 17:21 56.02744 37.68056 2797 ft 189 kts 227°
2026-05-06 17:21 56.01819 37.66488 2660 ft 183 kts 226°
2026-05-06 17:21 56.00897 37.64918 2554 ft 183 kts 228°
2026-05-06 17:21 56.00328 37.62972 2506 ft 176 kts 260°
2026-05-06 17:22 56.00076 37.60887 2461 ft 167 kts 254°
2026-05-06 17:22 55.99767 37.58958 2291 ft 157 kts 252°
2026-05-06 17:22 55.99477 37.57082 2091 ft 155 kts 252°
2026-05-06 17:22 55.99196 37.55227 1879 ft 156 kts 251°
2026-05-06 17:23 55.98913 37.53343 1684 ft 159 kts 257°
2026-05-06 17:23 55.98622 37.51417 1470 ft 162 kts 257°
2026-05-06 17:23 55.98335 37.49492 1263 ft 160 kts 257°
2026-05-06 17:23 55.98046 37.47582 1027 ft 158 kts 259°
2026-05-06 17:24 55.97769 37.45658 830 ft 163 kts 258°
2026-05-06 17:24 55.97476 37.43718 646 ft 158 kts 256°
2026-05-06 17:24 55.97222 37.42024 636 ft 115 kts 255°
2026-05-06 17:24 55.97072 37.41020 644 ft 52 kts 255°
2026-05-06 17:25 55.96997 37.40606 639 ft 27 kts 240°
2026-05-06 17:25 55.96893 37.40364 639 ft 19 kts 226°
2026-05-06 17:25 55.96815 37.40220 639 ft 12 kts 226°
2026-05-06 17:25 55.96769 37.40137 638 ft 9 kts 226°
2026-05-06 17:26 55.96727 37.40060 638 ft 9 kts 226°
2026-05-06 17:26 55.96700 37.39969 639 ft 8 kts 256°
2026-05-06 17:26 55.96679 37.39877 640 ft 8 kts 219°
2026-05-06 17:26 55.96625 37.39875 639 ft 8 kts 166°
2026-05-06 17:27 55.96574 37.39898 638 ft 8 kts 165°
2026-05-06 17:27 55.96533 37.39946 643 ft 7 kts 111°
2026-05-06 17:27 55.96539 37.40033 638 ft 6 kts 75°
2026-05-06 17:27 55.96546 37.40075 638 ft 3 kts 74°
2026-05-06 17:28 55.96546 37.40079 638 ft 0 kts 74°